Weather History for Wildwood, NJ

Change the Weather History Date:

Monday, October 21, 2013

  Actual Average Record
Temperature  
Mean Temperature 54 °F -  
Max Temperature 66 °F 61 °F 77 °F (2007)
Min Temperature 42 °F 46 °F 42 °F (2013)
Degree Days  
Heating Degree Days 11    
Growing Degree Days 4 (Base 50)    
Moisture  
Dew Point 41 °F    
Average Humidity 66    
Maximum Humidity 87    
Minimum Humidity 32    
Precipitation  
Precipitation 0.00 in - - ()
Sea Level Pressure  
Sea Level Pressure 30.12 in    
Wind  
Wind Speed 2 mph (South)    
Max Wind Speed 15 mph    
Max Gust Speed 18 mph    
Visibility 10 miles    
Events      
Averages and records for this station are not official NWS values.
T = Trace of Precipitation, MM = Missing Value Source: NWS Daily Summary

Daily Weather History Graph

Daily Weather History Graph

Search for Another Location

Airport:

Trip Planner

Search our weather history database for the weather conditions in past years. The results will help you decide how hot, cold, wet, or windy it might be!

Date:

Astronomy

Oct. 21, 2013 Rise Set
Actual Time 7:15 AM EDT 6:12 PM EDT
Civil Twilight 6:48 AM EDT 6:39 PM EDT
Nautical Twilight 6:17 AM EDT 7:10 PM EDT
Astronomical Twilight 5:46 AM EDT 7:41 PM EDT
Moon 8:04 PM EDT (10/21) 9:47 AM EDT (10/21)
Length of Visible Light 11h 51m
Length of Day
10h 56m
Waning Gibbous, 93% of the Moon is Illuminated
Oct 21
Waning Gibbous
Oct 26
Last Quarter
Nov 3
New
Nov 10
First Quarter
Nov 17
Full

Hourly Weather History & Observations

Time (EDT) Temp. Dew Point Humidity Pressure Visibility Wind Dir Wind Speed Gust Speed Precip Events Conditions
12:15 AM 44.6 °F 39.2 °F 81% 30.12 in 10.0 mi Calm Calm - N/A   Clear
12:35 AM 44.6 °F 39.2 °F 81% 30.12 in 10.0 mi Calm Calm - N/A   Clear
12:55 AM 44.6 °F 39.2 °F 81% 30.12 in 10.0 mi Calm Calm - N/A   Clear
1:15 AM 44.6 °F 39.2 °F 81% 30.12 in 10.0 mi Calm Calm - N/A   Clear
1:35 AM 44.6 °F 39.2 °F 81% 30.13 in 10.0 mi Calm Calm - N/A   Clear
1:55 AM 44.6 °F 39.2 °F 81% 30.13 in 10.0 mi Calm Calm - N/A   Clear
2:15 AM 44.6 °F 39.2 °F 81% 30.13 in 10.0 mi Calm Calm - N/A   Clear
2:35 AM 44.6 °F 39.2 °F 81% 30.13 in 10.0 mi Calm Calm - N/A   Clear
2:55 AM 44.6 °F 39.2 °F 81% 30.13 in 10.0 mi Calm Calm - N/A   Clear
3:15 AM 44.6 °F 39.2 °F 81% 30.13 in 10.0 mi Calm Calm - N/A   Clear
3:35 AM 42.8 °F 39.2 °F 87% 30.12 in 10.0 mi Calm Calm - N/A   Clear
3:55 AM 42.8 °F 39.2 °F 87% 30.13 in 10.0 mi Calm Calm - N/A   Clear
4:15 AM 42.8 °F 37.4 °F 81% 30.13 in 10.0 mi Calm Calm - N/A   Clear
4:35 AM 42.8 °F 37.4 °F 81% 30.13 in 10.0 mi Calm Calm - N/A   Clear
4:55 AM 42.8 °F 39.2 °F 87% 30.14 in 10.0 mi Calm Calm - N/A   Clear
5:15 AM 42.8 °F 37.4 °F 81% 30.15 in 10.0 mi Calm Calm - N/A   Clear
5:35 AM 42.8 °F 37.4 °F 81% 30.15 in 10.0 mi Calm Calm - N/A   Clear
5:55 AM 42.8 °F 37.4 °F 81% 30.15 in 10.0 mi Calm Calm - N/A   Clear
6:15 AM 42.8 °F 37.4 °F 81% 30.16 in 10.0 mi Calm Calm - N/A   Clear
6:35 AM 42.8 °F 37.4 °F 81% 30.16 in 10.0 mi Calm Calm - N/A   Clear
6:55 AM 42.8 °F 37.4 °F 81% 30.16 in 10.0 mi Calm Calm - N/A   Clear
7:15 AM 42.8 °F 37.4 °F 81% 30.17 in 10.0 mi Calm Calm - N/A   Clear
7:35 AM 42.8 °F 37.4 °F 81% 30.17 in 10.0 mi Calm Calm - N/A   Clear
7:55 AM 42.8 °F 39.2 °F 87% 30.17 in 10.0 mi Calm Calm - N/A   Clear
8:15 AM 44.6 °F 41.0 °F 87% 30.18 in 10.0 mi Calm Calm - N/A   Clear
8:35 AM 48.2 °F 44.6 °F 87% 30.18 in 10.0 mi Calm Calm - N/A   Clear
8:55 AM 51.8 °F 46.4 °F 82% 30.18 in 10.0 mi Calm Calm - N/A   Clear
9:15 AM 55.4 °F 50.0 °F 82% 30.19 in 10.0 mi Calm Calm - N/A   Clear
9:35 AM 59.0 °F 48.2 °F 67% 30.18 in 10.0 mi WSW 4.6 mph - N/A   Clear
9:55 AM 60.8 °F 44.6 °F 55% 30.18 in 10.0 mi West 4.6 mph - N/A   Clear
10:15 AM 60.8 °F 42.8 °F 52% 30.18 in 10.0 mi West 4.6 mph - N/A   Clear
10:35 AM 60.8 °F 41.0 °F 48% 30.18 in 10.0 mi WSW 3.5 mph - N/A   Clear
10:55 AM 62.6 °F 41.0 °F 45% 30.17 in 10.0 mi WSW 5.8 mph - N/A   Clear
11:15 AM 62.6 °F 39.2 °F 42% 30.17 in 10.0 mi WSW 3.5 mph - N/A   Clear
11:35 AM 62.6 °F 41.0 °F 45% 30.17 in 10.0 mi WNW 5.8 mph - N/A   Clear
11:55 AM 62.6 °F 42.8 °F 48% 30.17 in 10.0 mi West 6.9 mph - N/A   Clear
12:15 PM 62.6 °F 42.8 °F 48% 30.16 in 10.0 mi West 4.6 mph - N/A   Clear
12:35 PM 64.4 °F 37.4 °F 37% 30.15 in 10.0 mi South 5.8 mph - N/A   Clear
12:55 PM 66.2 °F 35.6 °F 32% 30.15 in 10.0 mi South 6.9 mph - N/A   Clear
1:15 PM 66.2 °F 35.6 °F 32% 30.14 in 10.0 mi South 8.1 mph - N/A   Clear
1:35 PM 64.4 °F 37.4 °F 37% 30.14 in 10.0 mi SSE 10.4 mph - N/A   Clear
1:55 PM 64.4 °F 37.4 °F 37% 30.13 in 10.0 mi South 9.2 mph - N/A   Clear
2:15 PM 64.4 °F 39.2 °F 40% 30.13 in 10.0 mi SSE 9.2 mph - N/A   Clear
2:35 PM 64.4 °F 39.2 °F 40% 30.12 in 10.0 mi SE 10.4 mph - N/A   Clear
2:55 PM 64.4 °F 41.0 °F 42% 30.11 in 10.0 mi SE 9.2 mph - N/A   Clear
3:15 PM 64.4 °F 42.8 °F 45% 30.10 in 10.0 mi SE 11.5 mph 18.4 mph N/A   Clear
3:35 PM 62.6 °F 42.8 °F 48% 30.10 in 10.0 mi SSE 13.8 mph - N/A   Clear
3:55 PM 64.4 °F 42.8 °F 45% 30.09 in 10.0 mi SSE 15.0 mph - N/A   Clear
4:15 PM 62.6 °F 42.8 °F 48% 30.09 in 10.0 mi SSE 11.5 mph - N/A   Clear
4:35 PM 62.6 °F 42.8 °F 48% 30.08 in 10.0 mi South 10.4 mph - N/A   Clear
4:55 PM 62.6 °F 44.6 °F 52% 30.08 in 10.0 mi SSE 12.7 mph - N/A   Clear
5:15 PM 62.6 °F 42.8 °F 48% 30.08 in 10.0 mi SSE 11.5 mph - N/A   Clear
5:35 PM 60.8 °F 44.6 °F 55% 30.08 in 10.0 mi SSE 8.1 mph - N/A   Clear
5:55 PM 60.8 °F 42.8 °F 52% 30.08 in 10.0 mi SSE 8.1 mph - N/A   Clear
6:15 PM 57.2 °F 42.8 °F 59% 30.08 in 10.0 mi South 8.1 mph - N/A   Clear
6:35 PM 57.2 °F 42.8 °F 59% 30.08 in 10.0 mi South 8.1 mph - N/A   Clear
6:55 PM 57.2 °F 42.8 °F 59% 30.07 in 10.0 mi SSE 6.9 mph - N/A   Clear
7:15 PM 57.2 °F 44.6 °F 63% 30.08 in 10.0 mi South 6.9 mph - N/A   Clear
7:35 PM 57.2 °F 44.6 °F 63% 30.07 in 10.0 mi South 6.9 mph - N/A   Clear
7:55 PM 57.2 °F 44.6 °F 63% 30.07 in 10.0 mi South 3.5 mph - N/A   Clear
8:15 PM 53.6 °F 44.6 °F 72% 30.07 in 10.0 mi Calm Calm - N/A   Clear
8:35 PM 53.6 °F 44.6 °F 72% 30.06 in 10.0 mi Calm Calm - N/A   Clear
8:55 PM 51.8 °F 44.6 °F 76% 30.06 in 10.0 mi Calm Calm - N/A   Clear
9:15 PM 51.8 °F 44.6 °F 76% 30.06 in 10.0 mi Calm Calm - N/A   Clear
9:35 PM 51.8 °F 44.6 °F 76% 30.06 in 10.0 mi Calm Calm - N/A   Clear
9:55 PM 51.8 °F 44.6 °F 76% 30.05 in 10.0 mi Calm Calm - N/A   Clear
10:15 PM 51.8 °F 44.6 °F 76% 30.04 in 10.0 mi Calm Calm - N/A   Clear
10:35 PM 51.8 °F 44.6 °F 76% 30.04 in 10.0 mi Calm Calm - N/A   Clear
10:55 PM 50.0 °F 44.6 °F 82% 30.04 in 10.0 mi Calm Calm - N/A   Clear
11:15 PM 50.0 °F 44.6 °F 82% 30.03 in 10.0 mi Calm Calm - N/A   Clear
11:35 PM 50.0 °F 44.6 °F 82% 30.02 in 10.0 mi Calm Calm - N/A   Clear
11:55 PM 51.8 °F 44.6 °F 76% 30.01 in 10.0 mi Calm Calm - N/A   Clear